Wetterdaten: Jahr 2014
Datum Temp Feuchte Luftdruck Regen Wind Richtung Sonnenschein UV Solar Windben
01.01.2014 4,2 C 90 % 1008,3 hPa 0,6 l/m 16,6 km/h S-SO 4,50 h 0,6 UV-I 121 W/m 28,5 km/h
02.01.2014 6,4 C 89 % 1003,2 hPa 0,2 l/m 11,9 km/h S 0,50 h 0,5 UV-I 65 W/m 18,9 km/h
03.01.2014 5,5 C 94 % 1005,7 hPa 4,6 l/m 15,8 km/h S-SO 0,33 h 0,5 UV-I 46 W/m 27,4 km/h
04.01.2014 5,0 C 89 % 1001,9 hPa 0,2 l/m 3,6 km/h S 0,00 h 0,5 UV-I 65 W/m 9,3 km/h
05.01.2014 3,6 C 92 % 1007,5 hPa 5,0 l/m 3,6 km/h S 2,33 h 0,5 UV-I 88 W/m 8,5 km/h
06.01.2014 6,4 C 94 % 1006,9 hPa 8,2 l/m 11,6 km/h S-SO 0,00 h 0,5 UV-I 32 W/m 22,5 km/h
07.01.2014 8,7 C 87 % 1013,0 hPa 0,6 l/m 7,9 km/h S 3,58 h 0,6 UV-I 111 W/m 14,9 km/h
08.01.2014 6,7 C 91 % 1016,4 hPa 4,8 l/m 2,2 km/h S 0,50 h 0,5 UV-I 59 W/m 6,4 km/h
09.01.2014 7,7 C 90 % 1005,7 hPa 2,4 l/m 13,5 km/h S 0,00 h 0,0 UV-I 33 W/m 32,2 km/h
10.01.2014 4,9 C 88 % 1015,1 hPa 0,0 l/m 4,6 km/h SW 0,58 h 0,5 UV-I 57 W/m 13,7 km/h
11.01.2014 3,2 C 91 % 1016,5 hPa 2,6 l/m 4,1 km/h S-SW 2,83 h 0,6 UV-I 113 W/m 17,3 km/h
12.01.2014 1,0 C 93 % 1020,8 hPa 0,0 l/m 1,6 km/h W 1,25 h 0,5 UV-I 82 W/m 7,6 km/h
13.01.2014 3,5 C 92 % 1011,1 hPa 0,0 l/m 2,9 km/h S 0,17 h 0,5 UV-I 46 W/m 4,4 km/h
14.01.2014 3,6 C 95 % 1007,5 hPa 0,2 l/m 3,3 km/h S-SO 0,83 h 0,5 UV-I 76 W/m 5,6 km/h
15.01.2014 3,4 C 91 % 1007,6 hPa 1,4 l/m 10,9 km/h S-SO 3,83 h 0,6 UV-I 124 W/m 17,3 km/h
16.01.2014 5,0 C 96 % 1000,9 hPa 5,2 l/m 5,6 km/h S-SO 0,00 h 0,5 UV-I 40 W/m 9,3 km/h
17.01.2014 5,1 C 93 % 1001,7 hPa 0,0 l/m 8,3 km/h S 0,92 h 0,5 UV-I 71 W/m 14,1 km/h
18.01.2014 3,5 C 92 % 1002,6 hPa 0,0 l/m 17,0 km/h S-SO 2,00 h 0,6 UV-I 107 W/m 25,0 km/h
19.01.2014 3,5 C 95 % 1001,5 hPa 0,0 l/m 5,8 km/h SO 0,00 h 0,0 UV-I 29 W/m 18,9 km/h
20.01.2014 -0,1 C 97 % 1005,8 hPa 0,2 l/m 0,0 km/h N-NO 0,00 h 0,0 UV-I 23 W/m 0,0 km/h
21.01.2014 0,3 C 97 % 1011,8 hPa 0,2 l/m 0,0 km/h NW 0,00 h 0,0 UV-I 25 W/m 0,0 km/h
22.01.2014 1,5 C 98 % 1013,9 hPa 0,4 l/m 0,1 km/h SO 0,00 h 0,0 UV-I 34 W/m 1,6 km/h
23.01.2014 0,5 C 98 % 1012,6 hPa 0,6 l/m 2,2 km/h S-SO 0,00 h 0,0 UV-I 19 W/m 7,3 km/h
24.01.2014 -1,2 C 98 % 1016,9 hPa 2,0 l/m 0,8 km/h O-SO 0,00 h 0,0 UV-I 22 W/m 4,0 km/h
25.01.2014 -3,7 C 95 % 1015,2 hPa 0,8 l/m 6,4 km/h S-SO 0,00 h 0,0 UV-I 33 W/m 13,7 km/h
26.01.2014 -0,8 C 98 % 1002,5 hPa 9,2 l/m 9,5 km/h S-SO 0,00 h 0,0 UV-I 26 W/m 12,9 km/h
27.01.2014 1,2 C 93 % 996,1 hPa 7,0 l/m 3,6 km/h S 2,67 h 0,7 UV-I 124 W/m 13,7 km/h
28.01.2014 1,0 C 92 % 1000,9 hPa 0,0 l/m 9,9 km/h S-SO 3,83 h 0,7 UV-I 137 W/m 17,3 km/h
29.01.2014 -2,9 C 93 % 1004,3 hPa 0,0 l/m 5,9 km/h SO 0,00 h 0,5 UV-I 53 W/m 17,3 km/h
30.01.2014 -1,7 C 88 % 1008,7 hPa 0,0 l/m 5,3 km/h SO 4,83 h 0,7 UV-I 160 W/m 13,7 km/h
31.01.2014 0,7 C 86 % 1007,8 hPa 0,0 l/m 5,1 km/h S-SO 5,33 h 0,7 UV-I 173 W/m 10,9 km/h
01.02.2014 2,1 C 94 % 1002,9 hPa 3,0 l/m 12,0 km/h S-SO 0,00 h 0,0 UV-I 29 W/m 18,9 km/h
02.02.2014 2,6 C 91 % 1014,7 hPa 0,2 l/m 2,9 km/h S 6,00 h 0,8 UV-I 187 W/m 7,2 km/h
03.02.2014 1,8 C 95 % 1011,1 hPa 0,2 l/m 6,8 km/h SO 3,17 h 0,7 UV-I 134 W/m 16,5 km/h
04.02.2014 2,9 C 92 % 1009,2 hPa 0,0 l/m 7,3 km/h S-SO 0,58 h 0,6 UV-I 76 W/m 16,1 km/h
05.02.2014 2,7 C 91 % 999,3 hPa 0,0 l/m 11,5 km/h S-SO 2,50 h 0,7 UV-I 122 W/m 20,1 km/h
06.02.2014 5,6 C 85 % 1001,6 hPa 2,4 l/m 15,3 km/h S-SO 1,67 h 0,7 UV-I 127 W/m 24,9 km/h
07.02.2014 6,6 C 85 % 996,1 hPa 1,4 l/m 17,4 km/h S-SO 1,83 h 0,7 UV-I 122 W/m 35,4 km/h
08.02.2014 4,6 C 89 % 992,1 hPa 1,2 l/m 21,0 km/h S-SO 0,00 h 0,6 UV-I 54 W/m 36,2 km/h
09.02.2014 4,7 C 74 % 994,7 hPa 0,0 l/m 14,0 km/h S 3,25 h 0,7 UV-I 144 W/m 23,0 km/h
10.02.2014 2,8 C 88 % 995,7 hPa 1,4 l/m 5,0 km/h S-SO 0,25 h 0,6 UV-I 104 W/m 8,9 km/h
11.02.2014 4,3 C 83 % 1001,4 hPa 2,0 l/m 14,9 km/h S-SW 1,25 h 0,6 UV-I 82 W/m 27,0 km/h
12.02.2014 4,4 C 81 % 1003,3 hPa 4,4 l/m 20,0 km/h S 3,33 h 0,7 UV-I 160 W/m 35,4 km/h
13.02.2014 3,7 C 91 % 995,4 hPa 8,8 l/m 11,6 km/h S 1,08 h 0,6 UV-I 89 W/m 20,9 km/h
14.02.2014 4,3 C 87 % 1003,0 hPa 2,4 l/m 23,6 km/h S 5,83 h 0,9 UV-I 226 W/m 36,6 km/h
15.02.2014 8,0 C 80 % 998,6 hPa 0,0 l/m 16,0 km/h S 1,42 h 0,6 UV-I 120 W/m 30,1 km/h
16.02.2014 5,1 C 84 % 1008,5 hPa 8,4 l/m 8,6 km/h S-SW 3,33 h 0,8 UV-I 168 W/m 20,1 km/h
17.02.2014 3,2 C 90 % 1015,0 hPa 0,0 l/m 1,1 km/h S 0,50 h 0,6 UV-I 101 W/m 4,4 km/h
18.02.2014 3,4 C 89 % 1013,2 hPa 0,0 l/m 9,0 km/h S 0,00 h 0,5 UV-I 81 W/m 12,5 km/h
19.02.2014 5,8 C 92 % 1012,5 hPa 1,4 l/m 0,9 km/h S-SW 0,33 h 0,6 UV-I 69 W/m 6,4 km/h
20.02.2014 7,6 C 83 % 1007,8 hPa 0,2 l/m 13,3 km/h S 3,83 h 1,1 UV-I 199 W/m 19,7 km/h
21.02.2014 4,3 C 93 % 1006,8 hPa 7,2 l/m 6,2 km/h S-SW 0,50 h 0,7 UV-I 94 W/m 16,5 km/h
22.02.2014 2,8 C 91 % 1015,2 hPa 0,4 l/m 4,6 km/h S 2,17 h 0,8 UV-I 104 W/m 8,5 km/h
23.02.2014 2,9 C 86 % 1021,0 hPa 0,0 l/m 4,9 km/h S 7,40 h 1,2 UV-I 258 W/m 9,3 km/h
24.02.2014 6,4 C 67 % 1014,7 hPa 0,0 l/m 16,7 km/h S-SO 8,00 h 1,1 UV-I 264 W/m 23,8 km/h
25.02.2014 7,3 C 76 % 1011,0 hPa 0,0 l/m 8,7 km/h S-SO 3,17 h 1,0 UV-I 193 W/m 17,7 km/h
26.02.2014 5,7 C 88 % 1016,8 hPa 0,0 l/m 0,6 km/h S 1,50 h 0,9 UV-I 124 W/m 2,8 km/h
27.02.2014 4,8 C 85 % 1012,5 hPa 0,6 l/m 7,0 km/h S-SO 7,58 h 1,1 UV-I 260 W/m 9,3 km/h
28.02.2014 3,9 C 88 % 1002,7 hPa 1,4 l/m 4,9 km/h S-SO 4,00 h 1,0 UV-I 194 W/m 9,2 km/h
01.03.2014 4,9 C 88 % 1001,5 hPa 3,8 l/m 1,8 km/h SO 2,75 h 1,0 UV-I 168 W/m 5,2 km/h
02.03.2014 3,2 C 85 % 1001,7 hPa 0,2 l/m 3,2 km/h S-SW 2,02 h 1,0 UV-I 162 W/m 8,4 km/h
03.03.2014 4,9 C 87 % 994,0 hPa 0,0 l/m 6,2 km/h S-SO 1,00 h 1,0 UV-I 122 W/m 10,9 km/h
04.03.2014 3,3 C 86 % 1005,3 hPa 0,0 l/m 0,0 km/h N-NW 4,58 h 1,0 UV-I 212 W/m 1,2 km/h
05.03.2014 4,4 C 92 % 1021,4 hPa 0,0 l/m 0,4 km/h W 0,67 h 0,7 UV-I 95 W/m 2,0 km/h
06.03.2014 4,0 C 83 % 1029,1 hPa 0,2 l/m 1,5 km/h S 8,33 h 1,6 UV-I 288 W/m 4,4 km/h
07.03.2014 9,8 C 65 % 1026,3 hPa 0,0 l/m 4,5 km/h S-SW 6,58 h 1,7 UV-I 339 W/m 12,1 km/h
08.03.2014 8,5 C 80 % 1031,2 hPa 0,0 l/m 7,0 km/h S-SO 7,92 h 1,4 UV-I 297 W/m 14,1 km/h
09.03.2014 11,2 C 60 % 1028,9 hPa 0,0 l/m 6,5 km/h S-SO 8,83 h 1,8 UV-I 319 W/m 12,9 km/h
10.03.2014 8,6 C 66 % 1025,2 hPa 0,0 l/m 0,6 km/h N-NO 8,92 h 1,6 UV-I 325 W/m 2,4 km/h
11.03.2014 7,4 C 85 % 1031,9 hPa 0,0 l/m 2,5 km/h N-NO 8,75 h 1,6 UV-I 310 W/m 7,2 km/h
12.03.2014 6,4 C 77 % 1031,8 hPa 0,0 l/m 0,7 km/h SO 8,92 h 1,7 UV-I 318 W/m 3,6 km/h
13.03.2014 6,1 C 75 % 1027,8 hPa 0,0 l/m 0,5 km/h W-SW 8,92 h 1,7 UV-I 321 W/m 2,4 km/h
14.03.2014 8,0 C 70 % 1022,4 hPa 0,0 l/m 1,3 km/h SW 8,83 h 1,6 UV-I 330 W/m 5,2 km/h
15.03.2014 6,4 C 83 % 1016,8 hPa 3,4 l/m 9,8 km/h NW 0,17 h 0,8 UV-I 102 W/m 28,9 km/h
16.03.2014 7,9 C 94 % 1016,0 hPa 4,0 l/m 14,8 km/h W 0,00 h 0,6 UV-I 24 W/m 35,4 km/h
17.03.2014 8,6 C 84 % 1017,9 hPa 0,0 l/m 7,2 km/h W 0,08 h 1,2 UV-I 96 W/m 21,0 km/h
18.03.2014 7,1 C 90 % 1012,7 hPa 1,8 l/m 4,1 km/h SW 0,00 h 1,0 UV-I 69 W/m 17,7 km/h
19.03.2014 10,2 C 79 % 1019,9 hPa 1,6 l/m 7,3 km/h SW 2,33 h 1,3 UV-I 158 W/m 29,4 km/h
20.03.2014 11,6 C 63 % 1012,6 hPa 0,0 l/m 10,8 km/h S 8,42 h 1,8 UV-I 340 W/m 18,1 km/h
21.03.2014 7,0 C 84 % 1007,6 hPa 3,4 l/m 5,2 km/h S 1,00 h 1,1 UV-I 126 W/m 13,3 km/h
22.03.2014 5,7 C 85 % 1002,6 hPa 3,0 l/m 6,9 km/h S 0,75 h 1,1 UV-I 138 W/m 10,5 km/h
23.03.2014 3,4 C 87 % 1006,6 hPa 1,8 l/m 1,6 km/h S-SW 3,75 h 1,1 UV-I 219 W/m 6,4 km/h
24.03.2014 3,1 C 89 % 1012,4 hPa 2,0 l/m 2,0 km/h W-NW 5,33 h 1,5 UV-I 291 W/m 6,4 km/h
25.03.2014 1,6 C 85 % 1011,3 hPa 0,2 l/m 0,0 km/h N-NW 4,75 h 1,2 UV-I 229 W/m 0,0 km/h
26.03.2014 3,6 C 76 % 1015,2 hPa 0,2 l/m 2,4 km/h O-SO 5,08 h 1,1 UV-I 234 W/m 5,6 km/h
27.03.2014 7,1 C 70 % 1015,1 hPa 0,0 l/m 3,3 km/h O-SO 6,17 h 1,6 UV-I 313 W/m 10,9 km/h
28.03.2014 7,8 C 79 % 1019,8 hPa 0,0 l/m 13,1 km/h SO 5,42 h 1,4 UV-I 251 W/m 23,0 km/h
29.03.2014 9,7 C 71 % 1020,4 hPa 0,0 l/m 8,0 km/h S-SO 9,58 h 1,8 UV-I 372 W/m 13,3 km/h
30.03.2014 10,5 C 74 % 1016,3 hPa 0,0 l/m 0,0 km/h SO 9,50 h 1,8 UV-I 344 W/m 0,0 km/h
31.03.2014 10,4 C 83 % 1014,2 hPa 0,0 l/m 0,0 km/h W-NW 6,00 h 1,4 UV-I 263 W/m 0,4 km/h
01.04.2014 13,7 C 70 % 1010,7 hPa 0,4 l/m 0,0 km/h S 7,08 h 1,6 UV-I 292 W/m 0,0 km/h
02.04.2014 13,1 C 73 % 1006,0 hPa 0,0 l/m 0,0 km/h S-SO 7,50 h 1,7 UV-I 319 W/m 1,6 km/h
03.04.2014 15,7 C 64 % 1004,0 hPa 0,0 l/m 1,8 km/h S-SW 6,42 h 1,8 UV-I 305 W/m 4,8 km/h
04.04.2014 13,5 C 82 % 1008,1 hPa 0,0 l/m 0,0 km/h S-SO 0,17 h 1,0 UV-I 148 W/m 0,0 km/h
05.04.2014 10,6 C 95 % 1014,9 hPa 0,2 l/m 0,0 km/h W-NW 0,17 h 0,7 UV-I 70 W/m 0,0 km/h
06.04.2014 11,9 C 83 % 1017,1 hPa 0,2 l/m 2,5 km/h S-SW 7,58 h 1,9 UV-I 318 W/m 8,0 km/h
07.04.2014 15,1 C 79 % 1012,5 hPa 0,0 l/m 2,0 km/h S 2,92 h 1,6 UV-I 208 W/m 3,6 km/h
08.04.2014 8,0 C 84 % 1014,4 hPa 2,8 l/m 12,0 km/h S-SW 1,67 h 1,4 UV-I 156 W/m 29,0 km/h
09.04.2014 7,3 C 89 % 1022,1 hPa 3,4 l/m 4,4 km/h W 0,17 h 1,1 UV-I 102 W/m 20,1 km/h
10.04.2014 9,4 C 92 % 1020,9 hPa 0,6 l/m 0,6 km/h N-NW 0,17 h 1,2 UV-I 98 W/m 5,3 km/h
11.04.2014 8,5 C 88 % 1018,5 hPa 0,0 l/m 0,1 km/h N 0,00 h 1,2 UV-I 144 W/m 2,0 km/h
12.04.2014 9,4 C 74 % 1016,8 hPa 0,0 l/m 0,3 km/h W-NW 6,67 h 2,2 UV-I 333 W/m 4,4 km/h
13.04.2014 9,3 C 75 % 1016,6 hPa 0,0 l/m 5,3 km/h W 1,58 h 1,6 UV-I 184 W/m 19,7 km/h
14.04.2014 4,2 C 90 % 1015,3 hPa 6,2 l/m 5,7 km/h N-NW 1,67 h 1,3 UV-I 162 W/m 22,9 km/h
15.04.2014 3,9 C 81 % 1025,2 hPa 0,0 l/m 1,6 km/h N-NW 0,67 h 1,1 UV-I 139 W/m 9,3 km/h
16.04.2014 4,8 C 78 % 1029,6 hPa 0,0 l/m 0,6 km/h N-NO 8,50 h 2,3 UV-I 372 W/m 2,8 km/h
17.04.2014 9,4 C 61 % 1017,3 hPa 0,0 l/m 4,9 km/h S 9,25 h 2,4 UV-I 396 W/m 10,8 km/h
18.04.2014 6,7 C 84 % 1012,4 hPa 5,0 l/m 8,8 km/h N-NW 2,83 h 1,7 UV-I 242 W/m 22,1 km/h
19.04.2014 10,2 C 84 % 1016,1 hPa 0,2 l/m 3,8 km/h NO 10,42 h 2,4 UV-I 419 W/m 12,4 km/h
20.04.2014 12,3 C 74 % 1008,7 hPa 0,0 l/m 3,5 km/h SO 8,75 h 2,0 UV-I 353 W/m 10,5 km/h
21.04.2014 11,1 C 87 % 1005,0 hPa 1,4 l/m 2,1 km/h N-NO 3,67 h 1,7 UV-I 231 W/m 6,4 km/h
22.04.2014 10,1 C 91 % 1012,4 hPa 0,6 l/m 0,0 km/h S 2,67 h 1,7 UV-I 192 W/m 0,0 km/h
23.04.2014 11,0 C 87 % 1019,6 hPa 2,2 l/m 0,0 km/h SO 6,00 h 2,1 UV-I 294 W/m 0,8 km/h
24.04.2014 14,1 C 76 % 1017,9 hPa 0,2 l/m 0,4 km/h N-NO 9,83 h 2,3 UV-I 372 W/m 2,4 km/h
25.04.2014 15,8 C 77 % 1012,1 hPa 0,0 l/m 2,4 km/h SO 9,83 h 2,7 UV-I 416 W/m 8,4 km/h
26.04.2014 13,2 C 91 % 1009,7 hPa 6,2 l/m 0,7 km/h W 2,75 h 1,5 UV-I 214 W/m 2,8 km/h
27.04.2014 10,8 C 97 % 1007,0 hPa 3,6 l/m 0,0 km/h W 0,08 h 0,7 UV-I 74 W/m 0,0 km/h
28.04.2014 12,5 C 96 % 1010,5 hPa 1,4 l/m 0,1 km/h N-NO 0,25 h 1,3 UV-I 113 W/m 1,6 km/h
29.04.2014 13,5 C 87 % 1010,5 hPa 0,4 l/m 0,0 km/h SO 3,75 h 1,9 UV-I 258 W/m 0,0 km/h
30.04.2014 14,6 C 86 % 1009,6 hPa 0,2 l/m 0,4 km/h W 8,33 h 2,5 UV-I 391 W/m 2,4 km/h
01.05.2014 12,6 C 89 % 1010,0 hPa 0,6 l/m 1,4 km/h N-NO 3,00 h 1,9 UV-I 215 W/m 4,4 km/h
02.05.2014 6,9 C 94 % 1017,2 hPa 1,4 l/m 2,8 km/h N-NO 0,00 h 0,8 UV-I 72 W/m 5,6 km/h
03.05.2014 6,3 C 74 % 1023,8 hPa 0,0 l/m 2,2 km/h N 11,75 h 2,8 UV-I 469 W/m 5,2 km/h
04.05.2014 5,3 C 80 % 1022,7 hPa 0,0 l/m 0,3 km/h N 6,08 h 2,2 UV-I 317 W/m 2,4 km/h
05.05.2014 9,3 C 74 % 1016,7 hPa 0,0 l/m 1,2 km/h SO 10,50 h 2,6 UV-I 385 W/m 4,4 km/h
06.05.2014 12,6 C 82 % 1008,6 hPa 5,8 l/m 5,7 km/h S 2,83 h 1,5 UV-I 185 W/m 11,6 km/h
07.05.2014 10,8 C 86 % 1009,8 hPa 9,2 l/m 4,4 km/h S-SW 2,58 h 2,0 UV-I 243 W/m 11,3 km/h
08.05.2014 10,5 C 87 % 1009,9 hPa 4,0 l/m 4,5 km/h S 0,83 h 1,6 UV-I 170 W/m 13,3 km/h
09.05.2014 10,6 C 90 % 1010,0 hPa 17,4 l/m 4,6 km/h S-SW 1,92 h 2,1 UV-I 223 W/m 23,4 km/h
10.05.2014 10,1 C 95 % 1007,0 hPa 6,8 l/m 9,6 km/h S 0,17 h 1,1 UV-I 113 W/m 18,9 km/h
11.05.2014 9,3 C 85 % 1002,9 hPa 6,2 l/m 10,2 km/h S-SW 2,08 h 1,7 UV-I 213 W/m 26,5 km/h
12.05.2014 8,9 C 90 % 1008,5 hPa 2,6 l/m 2,7 km/h S-SW 1,25 h 1,8 UV-I 176 W/m 14,1 km/h
13.05.2014 8,8 C 88 % 1015,8 hPa 11,0 l/m 1,2 km/h W 2,33 h 1,7 UV-I 193 W/m 4,4 km/h
14.05.2014 7,2 C 94 % 1026,8 hPa 6,8 l/m 1,5 km/h NW 1,50 h 1,3 UV-I 147 W/m 7,3 km/h
15.05.2014 8,4 C 90 % 1033,5 hPa 0,2 l/m 1,0 km/h N-NW 1,75 h 1,9 UV-I 180 W/m 4,8 km/h
16.05.2014 10,4 C 79 % 1028,8 hPa 0,0 l/m 2,4 km/h N 7,92 h 2,9 UV-I 396 W/m 6,0 km/h
17.05.2014 12,4 C 83 % 1021,3 hPa 0,0 l/m 0,3 km/h N-NO 3,67 h 2,2 UV-I 273 W/m 2,8 km/h
18.05.2014 13,6 C 85 % 1012,8 hPa 0,4 l/m 0,4 km/h N 7,50 h 2,8 UV-I 359 W/m 2,8 km/h
19.05.2014 16,2 C 78 % 1008,5 hPa 0,0 l/m 0,2 km/h SO 8,75 h 3,0 UV-I 403 W/m 4,0 km/h
20.05.2014 20,0 C 62 % 1011,6 hPa 0,0 l/m 1,4 km/h SO 10,83 h 3,1 UV-I 442 W/m 7,7 km/h
21.05.2014 20,8 C 65 % 1010,3 hPa 0,0 l/m 3,3 km/h SO 10,17 h 2,9 UV-I 387 W/m 10,9 km/h
22.05.2014 19,2 C 67 % 1007,6 hPa 1,2 l/m 1,3 km/h SO 8,50 h 2,5 UV-I 335 W/m 5,6 km/h
23.05.2014 13,8 C 92 % 1010,3 hPa 6,0 l/m 0,0 km/h S-SW 3,25 h 1,5 UV-I 176 W/m 0,0 km/h
24.05.2014 16,3 C 83 % 1014,8 hPa 4,6 l/m 0,1 km/h NW 6,17 h 2,4 UV-I 310 W/m 1,2 km/h
25.05.2014 15,4 C 72 % 1019,5 hPa 0,0 l/m 0,8 km/h NO 11,08 h 3,3 UV-I 469 W/m 2,0 km/h
26.05.2014 16,9 C 82 % 1013,6 hPa 3,0 l/m 2,1 km/h NO 7,17 h 2,7 UV-I 324 W/m 6,8 km/h
27.05.2014 14,0 C 95 % 1008,9 hPa 3,8 l/m 0,1 km/h N-NO 0,00 h 1,1 UV-I 87 W/m 2,0 km/h
28.05.2014 10,1 C 97 % 1011,6 hPa 29,0 l/m 0,2 km/h NO 0,00 h 1,0 UV-I 88 W/m 3,6 km/h
29.05.2014 8,0 C 91 % 1017,8 hPa 1,6 l/m 0,6 km/h NO 0,00 h 1,3 UV-I 133 W/m 3,2 km/h
30.05.2014 12,0 C 78 % 1021,6 hPa 0,0 l/m 3,0 km/h S-SO 9,17 h 3,1 UV-I 422 W/m 5,6 km/h
31.05.2014 13,2 C 72 % 1020,9 hPa 0,0 l/m 0,4 km/h N-NW 11,83 h 3,4 UV-I 469 W/m 4,0 km/h
01.06.2014 12,2 C 77 % 1020,1 hPa 0,0 l/m 1,0 km/h N-NW 7,67 h 2,7 UV-I 360 W/m 2,8 km/h
02.06.2014 14,2 C 73 % 1018,0 hPa 0,0 l/m 0,6 km/h N-NO 5,00 h 2,3 UV-I 307 W/m 2,4 km/h
03.06.2014 15,5 C 75 % 1013,3 hPa 0,0 l/m 0,1 km/h N 8,25 h 2,9 UV-I 406 W/m 1,2 km/h
04.06.2014 15,4 C 84 % 1006,3 hPa 2,4 l/m 0,6 km/h S-SO 6,33 h 2,2 UV-I 290 W/m 4,0 km/h
05.06.2014 11,5 C 82 % 1012,8 hPa 4,2 l/m 5,8 km/h S 4,67 h 2,1 UV-I 274 W/m 12,1 km/h
06.06.2014 16,6 C 71 % 1016,3 hPa 0,0 l/m 1,5 km/h S-SO 13,00 h 3,7 UV-I 484 W/m 4,8 km/h
07.06.2014 21,8 C 68 % 1014,7 hPa 0,0 l/m 3,2 km/h S 10,75 h 3,6 UV-I 420 W/m 5,6 km/h
08.06.2014 22,4 C 82 % 1016,9 hPa 0,8 l/m 1,4 km/h N 12,75 h 3,1 UV-I 423 W/m 4,4 km/h
09.06.2014 23,7 C 78 % 1016,4 hPa 8,0 l/m 2,7 km/h SO 9,83 h 3,4 UV-I 380 W/m 7,6 km/h
10.06.2014 22,5 C 81 % 1018,1 hPa 0,6 l/m 2,1 km/h SO 8,00 h 3,3 UV-I 384 W/m 10,1 km/h
11.06.2014 17,2 C 90 % 1024,1 hPa 5,6 l/m 0,3 km/h NW 0,50 h 1,5 UV-I 118 W/m 2,8 km/h
12.06.2014 15,8 C 77 % 1025,1 hPa 0,2 l/m 1,5 km/h N-NW 8,58 h 3,2 UV-I 394 W/m 4,4 km/h
13.06.2014 15,5 C 78 % 1019,6 hPa 0,0 l/m 3,0 km/h N-NW 5,17 h 2,5 UV-I 266 W/m 13,3 km/h
14.06.2014 13,8 C 85 % 1019,3 hPa 0,2 l/m 2,9 km/h N-NW 2,25 h 2,2 UV-I 216 W/m 8,4 km/h
15.06.2014 15,1 C 78 % 1021,2 hPa 0,0 l/m 0,9 km/h N-NW 5,08 h 2,8 UV-I 304 W/m 4,0 km/h
16.06.2014 12,6 C 91 % 1019,9 hPa 0,4 l/m 0,0 km/h N-NW 0,92 h 1,7 UV-I 164 W/m 0,0 km/h
17.06.2014 15,0 C 86 % 1020,3 hPa 0,0 l/m 0,0 km/h N-NW 3,08 h 2,4 UV-I 260 W/m 0,0 km/h
18.06.2014 15,6 C 79 % 1020,3 hPa 0,0 l/m 0,9 km/h NW 5,67 h 2,8 UV-I 329 W/m 3,6 km/h
19.06.2014 12,3 C 94 % 1017,0 hPa 4,8 l/m 2,2 km/h NW 0,08 h 1,5 UV-I 117 W/m 18,9 km/h
20.06.2014 12,4 C 87 % 1016,6 hPa 5,4 l/m 0,9 km/h N-NW 1,92 h 2,3 UV-I 199 W/m 4,0 km/h
21.06.2014 12,8 C 90 % 1017,4 hPa 0,4 l/m 0,8 km/h W-NW 0,83 h 1,7 UV-I 168 W/m 8,1 km/h
22.06.2014 13,3 C 82 % 1019,4 hPa 0,4 l/m 0,4 km/h NW 3,75 h 2,0 UV-I 236 W/m 3,2 km/h
23.06.2014 14,2 C 79 % 1020,3 hPa 0,0 l/m 0,5 km/h NW 5,42 h 2,5 UV-I 305 W/m 3,6 km/h
24.06.2014 13,5 C 88 % 1015,9 hPa 1,8 l/m 0,2 km/h W 5,42 h 2,7 UV-I 297 W/m 2,4 km/h
25.06.2014 12,6 C 85 % 1014,4 hPa 3,8 l/m 4,3 km/h N-NW 5,92 h 2,4 UV-I 350 W/m 8,4 km/h
26.06.2014 13,5 C 84 % 1015,3 hPa 0,2 l/m 0,0 km/h SO 6,08 h 2,5 UV-I 308 W/m 0,8 km/h
27.06.2014 16,0 C 83 % 1013,6 hPa 0,2 l/m 2,5 km/h S 6,42 h 2,7 UV-I 334 W/m 4,4 km/h
28.06.2014 15,5 C 90 % 1009,0 hPa 4,8 l/m 0,5 km/h S-SW 4,92 h 2,5 UV-I 244 W/m 2,4 km/h
29.06.2014 13,4 C 92 % 1007,9 hPa 6,8 l/m 0,0 km/h NW 2,25 h 1,8 UV-I 186 W/m 0,0 km/h
30.06.2014 13,5 C 88 % 1014,6 hPa 3,6 l/m 2,0 km/h N-NW 3,50 h 2,4 UV-I 266 W/m 7,2 km/h
01.07.2014 13,6 C 77 % 1018,5 hPa 0,0 l/m 1,4 km/h N-NW 6,25 h 2,8 UV-I 338 W/m 4,4 km/h
02.07.2014 13,9 C 81 % 1021,7 hPa 0,0 l/m 1,2 km/h N-NW 7,42 h 2,7 UV-I 381 W/m 4,8 km/h
03.07.2014 17,2 C 70 % 1020,6 hPa 0,0 l/m 0,7 km/h S 12,92 h 3,7 UV-I 475 W/m 3,6 km/h
04.07.2014 21,1 C 66 % 1010,0 hPa 0,0 l/m 0,4 km/h S-SO 9,25 h 3,2 UV-I 407 W/m 2,0 km/h
05.07.2014 20,5 C 78 % 1006,8 hPa 0,4 l/m 4,0 km/h S 5,58 h 2,9 UV-I 314 W/m 8,4 km/h
06.07.2014 22,5 C 73 % 1007,2 hPa 0,0 l/m 8,5 km/h S-SO 7,33 h 3,4 UV-I 378 W/m 13,3 km/h
07.07.2014 17,6 C 78 % 1015,5 hPa 4,2 l/m 0,7 km/h NW 5,75 h 2,7 UV-I 304 W/m 4,8 km/h
08.07.2014 15,1 C 96 % 1006,4 hPa 20,6 l/m 7,8 km/h N-NO 0,00 h 1,0 UV-I 82 W/m 19,7 km/h
09.07.2014 13,6 C 98 % 1004,4 hPa 28,4 l/m 0,9 km/h N-NW 0,00 h 0,7 UV-I 45 W/m 6,4 km/h
10.07.2014 18,6 C 91 % 1009,0 hPa 0,4 l/m 1,4 km/h NW 3,58 h 2,9 UV-I 282 W/m 4,0 km/h
11.07.2014 19,0 C 82 % 1011,6 hPa 0,0 l/m 1,0 km/h N 5,50 h 2,5 UV-I 288 W/m 4,4 km/h
12.07.2014 16,0 C 81 % 1011,4 hPa 0,0 l/m 0,1 km/h N 8,75 h 2,8 UV-I 354 W/m 1,2 km/h
13.07.2014 16,9 C 86 % 1006,9 hPa 0,4 l/m 0,8 km/h S-SW 3,42 h 1,9 UV-I 234 W/m 4,0 km/h
14.07.2014 16,7 C 91 % 1012,6 hPa 9,4 l/m 0,9 km/h S-SW 1,33 h 2,1 UV-I 175 W/m 4,8 km/h
15.07.2014 17,8 C 82 % 1019,7 hPa 0,0 l/m 0,6 km/h S-SW 7,08 h 3,2 UV-I 351 W/m 4,8 km/h
16.07.2014 19,6 C 80 % 1020,8 hPa 0,0 l/m 0,5 km/h N-NW 8,68 h 3,1 UV-I 405 W/m 2,0 km/h
17.07.2014 20,5 C 79 % 1020,2 hPa 0,0 l/m 0,0 km/h N-NW 11,17 h 2,9 UV-I 409 W/m 0,0 km/h
18.07.2014 23,8 C 65 % 1016,6 hPa 0,0 l/m 2,7 km/h SO 12,92 h 3,5 UV-I 442 W/m 4,8 km/h
19.07.2014 24,6 C 65 % 1011,9 hPa 0,0 l/m 2,5 km/h SO 12,17 h 3,7 UV-I 453 W/m 6,0 km/h
20.07.2014 22,9 C 72 % 1008,8 hPa 2,0 l/m 3,5 km/h SO 2,50 h 1,5 UV-I 196 W/m 14,9 km/h
21.07.2014 19,9 C 92 % 1011,1 hPa 16,2 l/m 0,4 km/h N-NW 0,33 h 1,2 UV-I 107 W/m 2,4 km/h
22.07.2014 21,5 C 77 % 1016,5 hPa 0,0 l/m 3,8 km/h N 10,58 h 3,2 UV-I 407 W/m 9,7 km/h
23.07.2014 21,6 C 70 % 1016,8 hPa 0,0 l/m 1,2 km/h N-NO 11,42 h 3,2 UV-I 440 W/m 7,3 km/h
24.07.2014 18,7 C 73 % 1015,1 hPa 1,6 l/m 2,2 km/h N-NO 6,92 h 2,4 UV-I 337 W/m 11,3 km/h
25.07.2014 17,0 C 91 % 1013,3 hPa 2,0 l/m 0,0 km/h N-NO 0,00 h 1,1 UV-I 100 W/m 0,0 km/h
26.07.2014 20,5 C 80 % 1012,8 hPa 0,2 l/m 0,0 km/h N-NW 7,17 h 2,5 UV-I 324 W/m 0,8 km/h
27.07.2014 19,9 C 82 % 1014,3 hPa 0,0 l/m 1,3 km/h NW 9,92 h 2,8 UV-I 401 W/m 4,4 km/h
28.07.2014 21,5 C 81 % 1010,8 hPa 12,2 l/m 1,5 km/h O 9,67 h 3,1 UV-I 414 W/m 5,2 km/h
29.07.2014 20,8 C 85 % 1008,0 hPa 17,2 l/m 1,1 km/h N-NO 5,00 h 2,1 UV-I 249 W/m 10,1 km/h
30.07.2014 18,6 C 85 % 1010,7 hPa 1,8 l/m 2,1 km/h N-NW 1,67 h 2,1 UV-I 168 W/m 4,8 km/h
31.07.2014 18,0 C 78 % 1014,1 hPa 0,0 l/m 0,7 km/h NW 9,50 h 3,4 UV-I 421 W/m 4,4 km/h
01.08.2014 20,0 C 75 % 1010,3 hPa 0,0 l/m 3,5 km/h SO 10,08 h 2,9 UV-I 393 W/m 4,8 km/h
02.08.2014 21,6 C 74 % 1007,0 hPa 0,0 l/m 4,2 km/h S-SO 8,83 h 2,4 UV-I 333 W/m 14,5 km/h
03.08.2014 19,6 C 80 % 1010,2 hPa 5,0 l/m 0,9 km/h NW 4,42 h 2,7 UV-I 300 W/m 2,8 km/h
04.08.2014 17,8 C 83 % 1014,6 hPa 0,2 l/m 0,3 km/h NW 3,67 h 2,4 UV-I 236 W/m 1,6 km/h
05.08.2014 16,2 C 82 % 1018,1 hPa 28,6 l/m 0,5 km/h N-NW 5,00 h 2,5 UV-I 307 W/m 2,0 km/h
06.08.2014 17,1 C 80 % 1015,2 hPa 0,0 l/m 0,5 km/h S-SO 7,08 h 2,3 UV-I 302 W/m 2,4 km/h
07.08.2014 17,4 C 83 % 1014,1 hPa 1,2 l/m 0,2 km/h NW 5,50 h 2,2 UV-I 281 W/m 3,2 km/h
08.08.2014 20,0 C 76 % 1011,1 hPa 0,0 l/m 3,0 km/h SO 8,00 h 2,9 UV-I 365 W/m 6,4 km/h
09.08.2014 17,8 C 77 % 1010,0 hPa 3,0 l/m 1,3 km/h S 6,17 h 2,5 UV-I 324 W/m 7,3 km/h
10.08.2014 19,2 C 80 % 1005,1 hPa 7,4 l/m 12,8 km/h S-SO 4,08 h 2,6 UV-I 248 W/m 22,1 km/h
11.08.2014 14,6 C 75 % 1010,8 hPa 0,2 l/m 6,9 km/h S 5,58 h 2,4 UV-I 312 W/m 14,9 km/h
12.08.2014 14,0 C 78 % 1009,9 hPa 5,4 l/m 3,9 km/h S 4,83 h 2,2 UV-I 305 W/m 8,1 km/h
13.08.2014 14,6 C 82 % 1005,0 hPa 1,0 l/m 0,9 km/h S 4,00 h 2,0 UV-I 253 W/m 3,2 km/h
14.08.2014 14,4 C 81 % 1009,4 hPa 0,2 l/m 0,3 km/h S-SW 2,50 h 1,9 UV-I 221 W/m 3,6 km/h
15.08.2014 13,4 C 85 % 1011,5 hPa 4,6 l/m 0,0 km/h NW 3,42 h 1,9 UV-I 218 W/m 0,0 km/h
16.08.2014 14,6 C 77 % 1016,2 hPa 0,4 l/m 3,1 km/h W-NW 2,00 h 2,2 UV-I 209 W/m 14,9 km/h
17.08.2014 14,1 C 78 % 1008,3 hPa 0,0 l/m 11,1 km/h S 2,00 h 1,4 UV-I 165 W/m 23,4 km/h
18.08.2014 12,9 C 80 % 1005,9 hPa 1,6 l/m 9,0 km/h S 2,00 h 1,6 UV-I 217 W/m 24,5 km/h
19.08.2014 10,4 C 84 % 1010,3 hPa 7,8 l/m 2,8 km/h S 2,17 h 1,2 UV-I 140 W/m 4,8 km/h
20.08.2014 11,6 C 78 % 1015,1 hPa 0,4 l/m 1,3 km/h S 6,58 h 2,1 UV-I 341 W/m 9,3 km/h
21.08.2014 12,0 C 79 % 1015,3 hPa 0,2 l/m 1,5 km/h S 4,50 h 2,0 UV-I 283 W/m 5,2 km/h
22.08.2014 12,7 C 78 % 1011,8 hPa 3,4 l/m 4,3 km/h S 4,75 h 2,0 UV-I 246 W/m 7,7 km/h
23.08.2014 11,4 C 83 % 1012,7 hPa 1,6 l/m 0,3 km/h S-SW 5,00 h 1,8 UV-I 280 W/m 2,4 km/h
24.08.2014 11,6 C 79 % 1017,3 hPa 2,6 l/m 1,6 km/h W 2,83 h 1,9 UV-I 222 W/m 7,3 km/h
25.08.2014 11,5 C 82 % 1012,8 hPa 3,0 l/m 0,0 km/h N 3,25 h 1,8 UV-I 193 W/m 0,0 km/h
26.08.2014 12,6 C 84 % 1007,1 hPa 8,4 l/m 0,0 km/h SO 0,00 h 1,2 UV-I 112 W/m 0,0 km/h
27.08.2014 12,2 C 77 % 1016,2 hPa 0,0 l/m 0,2 km/h NW 9,25 h 2,3 UV-I 379 W/m 2,0 km/h
28.08.2014 15,1 C 80 % 1015,5 hPa 0,2 l/m 3,4 km/h S-SO 5,42 h 2,3 UV-I 291 W/m 5,6 km/h
29.08.2014 15,2 C 82 % 1014,8 hPa 1,0 l/m 1,2 km/h W 1,83 h 1,6 UV-I 175 W/m 7,6 km/h
30.08.2014 15,3 C 81 % 1015,2 hPa 5,2 l/m 6,1 km/h S 0,58 h 1,1 UV-I 91 W/m 15,3 km/h
31.08.2014 13,6 C 80 % 1013,8 hPa 2,8 l/m 2,9 km/h NW 2,17 h 1,6 UV-I 169 W/m 6,0 km/h
01.09.2014 13,8 C 82 % 1019,3 hPa 3,0 l/m 0,1 km/h W-NW 0,42 h 1,2 UV-I 102 W/m 1,2 km/h
02.09.2014 14,3 C 81 % 1022,2 hPa 0,4 l/m 0,2 km/h N-NO 0,17 h 1,0 UV-I 88 W/m 3,6 km/h
03.09.2014 14,7 C 77 % 1022,8 hPa 0,0 l/m 1,5 km/h NO 5,50 h 2,3 UV-I 285 W/m 12,1 km/h
04.09.2014 17,7 C 76 % 1018,4 hPa 0,0 l/m 3,7 km/h O 8,33 h 2,4 UV-I 329 W/m 10,5 km/h
05.09.2014 19,0 C 78 % 1013,4 hPa 0,0 l/m 0,1 km/h SO 7,25 h 1,9 UV-I 260 W/m 2,4 km/h
06.09.2014 19,3 C 74 % 1011,8 hPa 1,6 l/m 0,3 km/h NW 8,08 h 2,3 UV-I 325 W/m 2,4 km/h
07.09.2014 14,6 C 78 % 1014,2 hPa 10,0 l/m 0,0 km/h W-NW 1,75 h 1,1 UV-I 117 W/m 0,0 km/h
08.09.2014 13,3 C 78 % 1017,3 hPa 0,4 l/m 1,2 km/h NW 5,92 h 2,2 UV-I 289 W/m 2,8 km/h
09.09.2014 12,7 C 76 % 1019,0 hPa 0,0 l/m 0,6 km/h NW 0,58 h 1,3 UV-I 140 W/m 2,8 km/h
10.09.2014 13,6 C 76 % 1018,0 hPa 0,2 l/m 2,7 km/h NW 0,58 h 1,5 UV-I 142 W/m 9,7 km/h
11.09.2014 12,3 C 77 % 1018,1 hPa 1,2 l/m 1,5 km/h N-NO 2,92 h 1,6 UV-I 214 W/m 4,8 km/h
12.09.2014 15,6 C 74 % 1020,2 hPa 0,0 l/m 5,6 km/h N 3,25 h 1,9 UV-I 235 W/m 12,5 km/h
13.09.2014 14,5 C 76 % 1022,5 hPa 0,6 l/m 2,0 km/h N 0,00 h 0,8 UV-I 65 W/m 6,0 km/h
14.09.2014 14,9 C 74 % 1019,3 hPa 0,0 l/m 1,3 km/h N-NO 4,33 h 2,1 UV-I 249 W/m 4,0 km/h
15.09.2014 16,9 C 73 % 1016,8 hPa 0,0 l/m 3,4 km/h SO 1,83 h 1,8 UV-I 181 W/m 6,0 km/h
16.09.2014 16,9 C 73 % 1015,4 hPa 0,0 l/m 2,3 km/h SO 6,25 h 2,2 UV-I 280 W/m 5,6 km/h
17.09.2014 17,5 C 72 % 1012,9 hPa 0,0 l/m 1,4 km/h SO 8,58 h 2,3 UV-I 335 W/m 7,3 km/h
18.09.2014 17,0 C 72 % 1011,8 hPa 7,8 l/m 3,0 km/h SO 5,67 h 2,2 UV-I 254 W/m 5,2 km/h
19.09.2014 17,8 C 71 % 1011,7 hPa 28,0 l/m 1,1 km/h S-SO 3,67 h 2,0 UV-I 222 W/m 2,8 km/h
20.09.2014 17,7 C 70 % 1013,0 hPa 2,8 l/m 0,1 km/h NW 1,58 h 1,4 UV-I 162 W/m 2,0 km/h
21.09.2014 13,0 C 71 % 1014,8 hPa 6,6 l/m 1,5 km/h N-NW 1,08 h 1,0 UV-I 117 W/m 4,4 km/h
22.09.2014 10,4 C 73 % 1017,3 hPa 2,6 l/m 3,0 km/h N-NW 2,50 h 1,2 UV-I 177 W/m 10,1 km/h
23.09.2014 9,9 C 71 % 1019,4 hPa 0,0 l/m 0,0 km/h N-NW 2,75 h 1,8 UV-I 213 W/m 0,0 km/h
24.09.2014 10,6 C 71 % 1011,4 hPa 0,4 l/m 3,7 km/h S 0,67 h 1,2 UV-I 171 W/m 14,9 km/h
25.09.2014 12,7 C 71 % 1017,6 hPa 0,6 l/m 1,0 km/h W-NW 2,00 h 1,6 UV-I 156 W/m 8,4 km/h
26.09.2014 14,1 C 69 % 1022,5 hPa 2,6 l/m 2,4 km/h SW 0,00 h 0,8 UV-I 64 W/m 14,1 km/h
27.09.2014 12,0 C 70 % 1027,4 hPa 0,0 l/m 0,0 km/h N-NW 4,58 h 1,7 UV-I 248 W/m 0,0 km/h
28.09.2014 13,1 C 69 % 1023,7 hPa 0,2 l/m 0,8 km/h SO 8,42 h 1,7 UV-I 264 W/m 4,0 km/h
29.09.2014 16,5 C 68 % 1022,4 hPa 1,8 l/m 0,2 km/h S-SW 5,50 h 1,7 UV-I 234 W/m 2,0 km/h
30.09.2014 14,6 C 67 % 1024,3 hPa 0,2 l/m 0,5 km/h S-SW 2,25 h 1,2 UV-I 149 W/m 4,0 km/h
01.10.2014 12,6 C 69 % 1026,5 hPa 0,2 l/m 0,0 km/h W-NW 4,83 h 1,4 UV-I 216 W/m 0,0 km/h
02.10.2014 14,7 C 67 % 1028,0 hPa 0,2 l/m 2,0 km/h S-SO 2,33 h 1,4 UV-I 181 W/m 4,0 km/h
03.10.2014 13,0 C 67 % 1024,4 hPa 0,0 l/m 1,8 km/h SO 8,67 h 1,7 UV-I 291 W/m 4,4 km/h
04.10.2014 13,8 C 68 % 1017,0 hPa 0,0 l/m 2,3 km/h SO 8,67 h 1,7 UV-I 301 W/m 11,3 km/h
05.10.2014 10,9 C 68 % 1016,0 hPa 0,0 l/m 0,0 km/h S-SO 6,17 h 1,3 UV-I 225 W/m 0,0 km/h
06.10.2014 12,9 C 68 % 1010,7 hPa 0,0 l/m 4,4 km/h SO 5,83 h 1,5 UV-I 233 W/m 14,5 km/h
07.10.2014 12,3 C 67 % 1003,4 hPa 17,8 l/m 8,2 km/h S 0,83 h 0,9 UV-I 95 W/m 19,7 km/h
08.10.2014 11,9 C 66 % 1005,7 hPa 3,0 l/m 5,9 km/h S-SO 1,00 h 0,7 UV-I 87 W/m 12,9 km/h
09.10.2014 14,4 C 63 % 1007,0 hPa 20,0 l/m 5,3 km/h S 0,08 h 0,9 UV-I 83 W/m 13,3 km/h
10.10.2014 12,3 C 66 % 1014,4 hPa 0,0 l/m 0,1 km/h S 3,00 h 1,4 UV-I 197 W/m 1,2 km/h
11.10.2014 13,7 C 64 % 1012,6 hPa 0,2 l/m 0,2 km/h S-SO 5,08 h 1,4 UV-I 238 W/m 2,0 km/h
12.10.2014 12,9 C 64 % 1012,5 hPa 2,0 l/m 1,6 km/h SO 5,50 h 1,3 UV-I 215 W/m 4,8 km/h
13.10.2014 14,0 C 61 % 1006,3 hPa 1,4 l/m 2,0 km/h S-SO 0,67 h 1,0 UV-I 111 W/m 6,0 km/h
14.10.2014 11,1 C 64 % 1007,2 hPa 0,2 l/m 0,9 km/h S 3,00 h 1,1 UV-I 158 W/m 2,8 km/h
15.10.2014 10,7 C 63 % 1006,4 hPa 0,0 l/m 0,0 km/h S 1,42 h 0,9 UV-I 102 W/m 1,2 km/h
16.10.2014 13,0 C 60 % 1005,8 hPa 3,0 l/m 5,8 km/h S 1,00 h 0,8 UV-I 97 W/m 19,3 km/h
17.10.2014 12,3 C 60 % 1014,3 hPa 0,8 l/m 0,1 km/h S-SW 0,33 h 0,9 UV-I 69 W/m 2,0 km/h
18.10.2014 13,7 C 60 % 1020,0 hPa 0,2 l/m 9,1 km/h S-SO 5,42 h 1,3 UV-I 203 W/m 15,7 km/h
19.10.2014 17,4 C 63 % 1014,6 hPa 4,2 l/m 5,4 km/h S 6,17 h 1,4 UV-I 229 W/m 20,5 km/h
20.10.2014 12,9 C 61 % 1013,9 hPa 0,2 l/m 2,8 km/h S-SW 0,25 h 0,7 UV-I 77 W/m 14,1 km/h
21.10.2014 9,8 C 62 % 1002,9 hPa 8,6 l/m 9,3 km/h S 0,00 h 0,6 UV-I 49 W/m 27,0 km/h
22.10.2014 7,5 C 65 % 1014,1 hPa 15,6 l/m 13,8 km/h NW 0,00 h 0,6 UV-I 35 W/m 30,5 km/h
23.10.2014 9,2 C 61 % 1022,6 hPa 0,0 l/m 0,2 km/h S 0,17 h 0,7 UV-I 88 W/m 0,8 km/h
24.10.2014 10,6 C 65 % 1019,6 hPa 0,0 l/m 2,5 km/h S 4,42 h 1,2 UV-I 195 W/m 6,4 km/h
25.10.2014 11,1 C 60 % 1019,6 hPa 0,4 l/m 0,0 km/h S 0,00 h 0,6 UV-I 52 W/m 1,2 km/h
26.10.2014 8,5 C 63 % 1024,9 hPa 0,4 l/m 3,3 km/h S-SW 0,25 h 0,8 UV-I 103 W/m 9,3 km/h
27.10.2014 9,1 C 62 % 1024,1 hPa 0,0 l/m 3,1 km/h S 6,58 h 1,1 UV-I 208 W/m 7,2 km/h
28.10.2014 5,4 C 65 % 1018,1 hPa 0,0 l/m 3,6 km/h S-SO 6,25 h 1,1 UV-I 221 W/m 9,7 km/h
29.10.2014 7,1 C 63 % 1018,8 hPa 4,8 l/m 0,9 km/h S 0,08 h 0,7 UV-I 73 W/m 2,0 km/h
30.10.2014 10,8 C 59 % 1023,6 hPa 0,2 l/m 0,0 km/h S-SO 0,00 h 0,6 UV-I 65 W/m 0,0 km/h
31.10.2014 11,8 C 58 % 1022,8 hPa 0,0 l/m 6,3 km/h S 2,92 h 1,0 UV-I 147 W/m 9,7 km/h
01.11.2014 12,3 C 59 % 1019,3 hPa 0,2 l/m 5,6 km/h S 5,75 h 1,1 UV-I 191 W/m 10,1 km/h
02.11.2014 11,5 C 59 % 1012,0 hPa 0,0 l/m 7,7 km/h S 3,33 h 0,9 UV-I 137 W/m 14,9 km/h
03.11.2014 12,6 C 60 % 999,8 hPa 0,2 l/m 19,1 km/h S 0,08 h 0,6 UV-I 75 W/m 27,4 km/h
04.11.2014 9,6 C 60 % 994,9 hPa 3,0 l/m 1,5 km/h S-SO 0,00 h 0,7 UV-I 49 W/m 2,4 km/h
05.11.2014 7,9 C 60 % 1003,2 hPa 3,6 l/m 0,0 km/h NW 0,25 h 0,6 UV-I 80 W/m 0,0 km/h
06.11.2014 6,3 C 63 % 1011,0 hPa 0,0 l/m 0,0 km/h S-SW 2,42 h 0,7 UV-I 132 W/m 0,0 km/h
07.11.2014 5,8 C 63 % 1007,1 hPa 0,6 l/m 10,0 km/h S-SO 5,50 h 1,0 UV-I 185 W/m 17,3 km/h
08.11.2014 7,9 C 63 % 1011,4 hPa 0,0 l/m 6,4 km/h S 4,25 h 0,8 UV-I 164 W/m 11,7 km/h
09.11.2014 5,5 C 63 % 1009,2 hPa 0,0 l/m 3,0 km/h S-SO 5,67 h 0,8 UV-I 166 W/m 8,1 km/h
10.11.2014 6,8 C 60 % 1010,9 hPa 0,8 l/m 1,9 km/h S 0,17 h 0,6 UV-I 77 W/m 5,2 km/h
11.11.2014 8,8 C 60 % 1006,9 hPa 0,2 l/m 3,5 km/h S-SO 1,83 h 0,8 UV-I 106 W/m 6,0 km/h
12.11.2014 9,8 C 60 % 1005,3 hPa 0,0 l/m 1,0 km/h S-SO 4,75 h 0,8 UV-I 160 W/m 4,4 km/h
13.11.2014 9,8 C 59 % 1013,0 hPa 0,0 l/m 1,3 km/h SO 1,33 h 0,7 UV-I 94 W/m 4,0 km/h
14.11.2014 9,4 C 61 % 1007,8 hPa 0,0 l/m 11,1 km/h SO 0,00 h 0,5 UV-I 48 W/m 18,1 km/h
15.11.2014 8,8 C 60 % 1002,3 hPa 0,0 l/m 6,1 km/h S-SO 0,08 h 0,6 UV-I 63 W/m 13,7 km/h
16.11.2014 7,7 C 60 % 1000,4 hPa 12,8 l/m 4,3 km/h S-SO 0,00 h 0,0 UV-I 21 W/m 13,3 km/h
17.11.2014 7,7 C 61 % 1007,3 hPa 0,0 l/m 2,5 km/h SO 3,58 h 0,7 UV-I 144 W/m 10,4 km/h
18.11.2014 6,3 C 61 % 1010,6 hPa 1,0 l/m 2,3 km/h N-NO 0,00 h 0,0 UV-I 20 W/m 11,3 km/h
19.11.2014 5,7 C 61 % 1021,9 hPa 0,0 l/m 0,0 km/h N 0,00 h 0,0 UV-I 24 W/m 0,0 km/h
20.11.2014 4,8 C 61 % 1027,2 hPa 0,0 l/m 0,1 km/h O 0,00 h 0,5 UV-I 44 W/m 1,2 km/h
21.11.2014 4,3 C 62 % 1023,2 hPa 0,0 l/m 0,6 km/h O-SO 0,00 h 0,5 UV-I 49 W/m 4,0 km/h
22.11.2014 5,3 C 63 % 1020,0 hPa 0,0 l/m 6,8 km/h S-SO 5,75 h 0,8 UV-I 144 W/m 9,6 km/h
23.11.2014 7,9 C 75 % 1018,0 hPa 0,0 l/m 4,0 km/h S-SO 4,58 h 0,8 UV-I 134 W/m 8,0 km/h
24.11.2014 4,9 C 89 % 1024,5 hPa 3,2 l/m 0,1 km/h S 2,08 h 0,6 UV-I 92 W/m 0,8 km/h
25.11.2014 3,0 C 90 % 1024,9 hPa 0,2 l/m 2,8 km/h SO 5,67 h 0,7 UV-I 155 W/m 7,7 km/h
26.11.2014 2,5 C 87 % 1016,7 hPa 0,0 l/m 7,7 km/h SO 0,17 h 0,7 UV-I 63 W/m 17,7 km/h
27.11.2014 2,8 C 89 % 1010,4 hPa 0,0 l/m 11,6 km/h SO 0,58 h 0,6 UV-I 83 W/m 25,0 km/h
28.11.2014 1,9 C 88 % 1013,7 hPa 0,2 l/m 3,6 km/h S-SO 2,75 h 0,7 UV-I 94 W/m 13,3 km/h
29.11.2014 0,9 C 93 % 1016,5 hPa 0,0 l/m 4,6 km/h SO 0,00 h 0,5 UV-I 38 W/m 14,5 km/h
30.11.2014 1,0 C 96 % 1012,8 hPa 0,0 l/m 1,2 km/h SO 0,00 h 0,0 UV-I 26 W/m 4,0 km/h
01.12.2014 -0,5 C 90 % 1012,7 hPa 0,0 l/m 1,9 km/h N-NO 0,00 h 0,6 UV-I 64 W/m 13,7 km/h
02.12.2014 -1,2 C 89 % 1015,9 hPa 0,0 l/m 0,4 km/h N-NO 0,75 h 0,5 UV-I 59 W/m 4,0 km/h
03.12.2014 -2,6 C 94 % 1021,4 hPa 0,0 l/m 0,8 km/h N-NO 0,00 h 0,5 UV-I 31 W/m 6,0 km/h
04.12.2014 -0,1 C 95 % 1017,1 hPa 0,0 l/m 0,2 km/h NO 0,00 h 0,0 UV-I 32 W/m 2,8 km/h
05.12.2014 1,5 C 95 % 1018,3 hPa 0,2 l/m 0,1 km/h S-SW 0,00 h 0,0 UV-I 26 W/m 1,6 km/h
06.12.2014 3,3 C 96 % 1023,5 hPa 0,4 l/m 0,3 km/h W-NW 0,00 h 0,0 UV-I 27 W/m 2,0 km/h
07.12.2014 3,8 C 89 % 1017,0 hPa 4,0 l/m 7,2 km/h S 2,00 h 0,6 UV-I 94 W/m 22,1 km/h
08.12.2014 2,0 C 89 % 1017,1 hPa 0,4 l/m 1,2 km/h S-SW 0,42 h 0,5 UV-I 62 W/m 6,8 km/h
09.12.2014 1,0 C 90 % 1026,1 hPa 0,4 l/m 2,4 km/h S 1,08 h 0,5 UV-I 70 W/m 6,4 km/h
10.12.2014 3,1 C 90 % 1014,2 hPa 7,6 l/m 10,2 km/h S 0,00 h 0,0 UV-I 18 W/m 21,3 km/h
11.12.2014 3,7 C 89 % 1007,1 hPa 2,4 l/m 13,0 km/h SW 0,00 h 0,0 UV-I 33 W/m 33,0 km/h
12.12.2014 6,6 C 88 % 998,5 hPa 14,8 l/m 22,9 km/h S 0,00 h 0,0 UV-I 30 W/m 42,7 km/h
13.12.2014 3,6 C 86 % 1010,8 hPa 0,6 l/m 0,6 km/h SW 0,08 h 0,5 UV-I 58 W/m 4,0 km/h
14.12.2014 1,0 C 87 % 1015,6 hPa 0,0 l/m 4,3 km/h S 3,00 h 0,5 UV-I 107 W/m 7,3 km/h
15.12.2014 2,2 C 93 % 1013,1 hPa 3,0 l/m 2,7 km/h S 0,00 h 0,0 UV-I 17 W/m 6,8 km/h
16.12.2014 3,5 C 93 % 1011,4 hPa 1,8 l/m 3,3 km/h SW 0,08 h 0,0 UV-I 33 W/m 12,5 km/h
17.12.2014 5,1 C 96 % 1005,9 hPa 11,2 l/m 6,0 km/h S 0,00 h 0,0 UV-I 24 W/m 14,9 km/h
18.12.2014 9,9 C 96 % 1009,3 hPa 8,2 l/m 7,4 km/h S-SW 0,00 h 0,0 UV-I 22 W/m 22,9 km/h
19.12.2014 7,0 C 90 % 1011,5 hPa 14,6 l/m 14,3 km/h S-SW 0,00 h 0,0 UV-I 15 W/m 31,8 km/h
20.12.2014 3,7 C 91 % 1018,4 hPa 1,6 l/m 6,9 km/h SW 0,00 h 0,0 UV-I 16 W/m 22,1 km/h
21.12.2014 5,4 C 93 % 1023,4 hPa 3,0 l/m 8,6 km/h SW 0,00 h 0,0 UV-I 24 W/m 33,0 km/h
22.12.2014 8,7 C 95 % 1015,3 hPa 5,0 l/m 15,3 km/h SW 0,00 h 0,0 UV-I 14 W/m 39,0 km/h
23.12.2014 8,8 C 90 % 1015,3 hPa 3,2 l/m 11,0 km/h SW 0,00 h 0,0 UV-I 20 W/m 34,2 km/h
24.12.2014 6,1 C 91 % 1013,9 hPa 13,4 l/m 10,3 km/h S-SW 0,00 h 0,0 UV-I 14 W/m 31,4 km/h
25.12.2014 2,7 C 91 % 1021,9 hPa 3,4 l/m 5,6 km/h W 0,25 h 0,0 UV-I 27 W/m 21,3 km/h
26.12.2014 -0,4 C 96 % 1025,2 hPa 2,2 l/m 0,0 km/h NW 0,08 h 0,0 UV-I 27 W/m 0,8 km/h
27.12.2014 -2,0 C 85 % 1005,3 hPa 0,0 l/m 12,3 km/h SO 0,00 h 0,5 UV-I 64 W/m 27,3 km/h
28.12.2014 -3,8 C 88 % 1027,2 hPa 0,0 l/m 0,8 km/h N-NO 3,08 h 0,6 UV-I 102 W/m 3,6 km/h
29.12.2014 -2,0 C 94 % 1032,3 hPa 1,8 l/m 3,1 km/h N-NW 0,00 h 0,0 UV-I 21 W/m 5,6 km/h
30.12.2014 1,0 C 96 % 1033,0 hPa 3,4 l/m 2,9 km/h NW 0,00 h 0,0 UV-I 31 W/m 10,5 km/h
31.12.2014 2,3 C 98 % 1033,9 hPa 3,2 l/m 1,2 km/h W 0,00 h 0,0 UV-I 31 W/m 12,4 km/h
Min-Datum 28.12.14 10.03.14 07.02.14 225 Tage 01.01.14 - - - - 01.01.14
Min-Zeit 08:30 14:55 12:20 - 05:45 - - - - 05:45
Minimum -6,9 C 29 % 989,0 hPa - 0,0 km/h - - - - 0,0 km/h
Max-Datum 19.07.14 12.01.14 29.12.14 28.05.14 07.02.14 - 06.06.14 13.06.14 07.07.14 07.02.14
Max-Zeit 15:55 01:55 21:00 02:30 13:30 - 20:00 13:50 14:15 13:10
Maximum 31,7 C 100 % 1036,0 hPa 29,0 l/m 49,3 km/h
S-SO
- 12,92 h 8,4 UV-I 1283 W/m 70,8 km/h
S-SO
Durchschnitt 10,2 C 80 % 1013,7 hPa #843,0 l/m 3,8 km/h S #1330:36 h 1,6 UV-I 192 W/m 9,6 km/h

Durchschnitt Minimum Temp.6,3 C
Durchschnitt Maximum Temp.14,3 C